Weather reports worldwide

Advertisment
Chambery/Aix-Les-Bains, France (7491): temperature & dewpoint: 18.03.2019 17:00:00 - 24.03.2019 17:00:00 (CET)Chambery/Aix-Les-Bains, France (7491): temperature 5cm: 18.03.2019 17:00:00 - 24.03.2019 17:00:00 (CET)Chambery/Aix-Les-Bains, France (7491): temperature -20cm & temperature -100cm: 18.03.2019 17:00:00 - 24.03.2019 17:00:00 (CET)Chambery/Aix-Les-Bains, France (7491): wind speed & gusts: 18.03.2019 17:00:00 - 24.03.2019 17:00:00 (CET)Chambery/Aix-Les-Bains, France (7491): wind direction: 18.03.2019 17:00:00 - 24.03.2019 17:00:00 (CET)Chambery/Aix-Les-Bains, France (7491): reduced air pressure: 18.03.2019 17:00:00 - 24.03.2019 17:00:00 (CET)Chambery/Aix-Les-Bains, France (7491): visibility: 18.03.2019 17:00:00 - 24.03.2019 17:00:00 (CET)Chambery/Aix-Les-Bains, France (7491): sunshine duration: 18.03.2019 17:00:00 - 24.03.2019 17:00:00 (CET)Chambery/Aix-Les-Bains, France (7491): precipitation: 18.03.2019 17:00:00 - 24.03.2019 17:00:00 (CET)
Date & Time tt [°C] td [°C] tt 5cm [°C] tt -20cm [°C] tt -100cm [°C] ff [km/h] ff [kn] fx [km/h] fx [kn] dd ppp [hPa] vv [km] sd [min] rr [mm]
24.03.2019 17:00:00 20,7 5,1 24,6 7,8 7,9 6 4 11 6 NNW 1020,5 17 60 0,0
24.03.2019 16:00:00 21,0 2,7 24,0 7,6 7,8 4 2 11 6 NW 1020,9 17 60 0,0
24.03.2019 15:00:00 19,8 3,0 23,2 7,5 7,9 6 3 14 7 NNE 1021,5 18 60 0,0
24.03.2019 14:00:00 17,6 2,7 19,3 7,4 7,9 8 4 15 8 N 1022,5 16 60 0,0
24.03.2019 13:00:00 15,3 3,1 17,6 7,4 7,9 10 6 16 8 N 1023,5 19 60 0,0
24.03.2019 12:00:00 12,2 3,9 17,4 7,4 7,9 11 6 16 9 N 1024,6 14 60 0,0
24.03.2019 11:00:00 12,3 3,5 18,2 7,4 7,9 8 4 13 7 N 1025,2 19 60 0,0
24.03.2019 10:00:00 11,1 2,6 14,1 7,4 7,9 4 2 8 4 N 1026,0 17 60 0,0
24.03.2019 09:00:00 9,0 3,0 8,0 7,5 7,9 3 2 8 4 ENE 1026,6 19 60 0,0
24.03.2019 08:00:00 3,1 2,1 -1,0 7,6 7,9 4 2 7 4 SSE 1027,4 14 22 0,0
24.03.2019 07:00:00 1,3 0,7 -2,1 7,6 7,9 0 0 6 3 N 1027,4 9 0 0,0
24.03.2019 06:00:00 1,9 1,0 -1,5 7,7 7,9 5 3 6 3 SSE 1026,9 12 0 0,0
24.03.2019 05:00:00 2,1 0,6 -1,9 7,8 7,9 4 2 6 3 SE 1026,5 18 0 0,0
24.03.2019 04:00:00 2,2 0,7 -1,3 7,8 7,9 3 2 6 3 SSE 1026,3 16 0 0,0
24.03.2019 03:00:00 3,6 1,8 -0,4 7,9 7,9 3 2 6 3 SE 1026,1 17 0 0,0
24.03.2019 02:00:00 4,5 2,4 0,5 7,9 7,9 4 2 7 4 SSW 1026,1 18 0 0,0
24.03.2019 01:00:00 5,1 2,6 0,7 8,0 7,9 3 2 8 4 SW 1025,9 19 0 0,0
24.03.2019 00:00:00 6,2 3,2 1,7 8,0 7,8 3 2 7 4 S 1026,0 18 0 0,0
23.03.2019 23:00:00 5,8 3,1 1,9 8,0 7,9 5 3 7 4 S 1025,9 20 0 0,0
23.03.2019 22:00:00 7,8 3,5 4,1 8,0 7,9 3 2 6 3 SSE 1025,7 20 0 0,0
23.03.2019 21:00:00 8,8 3,8 4,0 8,0 7,9 6 3 8 4 S 1025,5 20 0 0,0
23.03.2019 20:00:00 11,0 3,8 5,7 8,0 7,9 3 1 10 5 SSW 1024,6 20 0 0,0
23.03.2019 19:00:00 14,9 2,4 9,8 7,8 7,8 7 4 14 8 NW 1023,9 28 0 0,0
23.03.2019 18:00:00 17,6 2,7 13,5 7,7 7,8 4 2 16 9 NNW 1023,2 53 24 0,0
23.03.2019 17:00:00 21,5 2,2 26,0 7,6 7,9 10 5 28 15 NNW 1022,9 19 60 0,0
23.03.2019 16:00:00 21,4 2,6 25,8 7,5 7,9 14 7 26 14 NNW 1023,0 19 60 0,0
23.03.2019 15:00:00 20,3 3,9 24,1 7,3 7,9 13 7 21 11 N 1023,7 18 60 0,0
23.03.2019 14:00:00 18,3 4,5 19,1 7,2 7,8 11 6 22 12 N 1024,6 15 60 0,0
23.03.2019 13:00:00 16,5 5,7 20,4 7,1 7,8 10 6 17 9 NNW 1025,7 17 60 0,0
23.03.2019 12:00:00 17,0 1,4 20,5 7,1 7,8 8 4 15 8 N 1026,6 16 60 0,0
23.03.2019 11:00:00 14,5 1,0 18,6 7,1 7,8 4 2 10 5 NE 1027,7 14 60 0,0
23.03.2019 10:00:00 11,8 2,3 14,8 7,2 7,8 3 2 8 4 S 1028,8 14 60 0,0
23.03.2019 09:00:00 8,6 3,0 8,9 7,2 7,9 3 1 7 4 E 1029,4 14 60 0,0
23.03.2019 08:00:00 2,5 1,8 -2,9 7,3 7,9 3 2 6 3 SE 1030,0 11 21 0,0
23.03.2019 07:00:00 0,4 -1,0 -2,6 7,4 7,8 5 3 7 4 SSW 1030,1 9 0 0,0
23.03.2019 06:00:00 1,4 0,4 -1,1 7,5 7,9 4 2 7 4 S 1029,7 9 0 0,0
23.03.2019 05:00:00 0,9 -0,3 -2,1 7,6 7,9 5 3 7 4 SE 1029,7 13 0 0,0
23.03.2019 04:00:00 2,6 1,1 -1,3 7,6 7,8 2 1 5 3 SW 1029,6 14 0 0,0
23.03.2019 03:00:00 2,6 0,7 -1,1 7,6 7,8 4 2 10 5 SE 1029,6 15 0 0,0
23.03.2019 02:00:00 3,4 1,4 -0,1 7,7 7,9 5 3 7 4 S 1029,7 18 0 0,0
23.03.2019 01:00:00 4,6 2,0 0,7 7,7 7,8 3 2 8 4 SSW 1029,5 18 0 0,0
23.03.2019 00:00:00 5,0 2,4 0,2 7,8 7,8 3 2 9 5 SSE 1029,3 17 0 0,0
22.03.2019 23:00:00 4,8 2,0 2,2 7,8 7,8 7 4 8 5 S 1029,0 19 0 0,0
22.03.2019 22:00:00 5,9 2,2 1,6 7,8 7,8 4 2 6 3 S 1028,5 20 0 0,0
22.03.2019 21:00:00 8,4 3,0 3,0 7,8 7,9 4 2 15 8 WSW 1027,6 17 0 0,0
22.03.2019 20:00:00 9,3 3,1 4,3 7,7 7,9 0 0 8 4 N 1026,9 20 0 0,0
22.03.2019 19:00:00 12,2 3,4 6,2 7,6 7,8 4 2 6 3 SSW 1026,3 20 0 0,0
22.03.2019 18:00:00 15,4 2,2 13,1 7,5 7,8 6 3 18 10 WNW 1025,9 15 23 0,0
22.03.2019 17:00:00 18,0 3,1 23,8 7,4 7,8 10 5 17 9 NNW 1025,8 17 60 0,0
22.03.2019 16:00:00 18,5 1,9 23,5 7,2 7,8 10 6 18 10 NNW 1026,4 14 60 0,0
22.03.2019 15:00:00 16,8 0,8 21,5 7,1 7,8 8 4 15 8 N 1027,3 14 60 0,0
22.03.2019 14:00:00 17,9 -2,4 19,6 7,0 7,8 7 4 13 7 NNW 1027,8 19 60 0,0
22.03.2019 13:00:00 16,0 1,3 18,3 6,9 7,8 8 4 14 8 N 1029,0 14 60 0,0
22.03.2019 12:00:00 14,3 -1,4 18,4 6,9 7,8 5 3 14 8 NNW 1029,9 13 60 0,0
22.03.2019 11:00:00 11,8 1,1 15,7 7,0 7,8 4 2 12 7 NNE 1030,9 16 60 0,0
22.03.2019 10:00:00 9,2 2,1 11,5 7,0 7,8 2 1 7 4 WSW 1031,6 14 60 0,0
22.03.2019 09:00:00 5,9 1,8 7,4 7,1 7,8 3 2 7 4 NE 1032,3 9 60 0,0
22.03.2019 08:00:00 1,2 0,9 -3,9 7,2 7,8 4 2 8 4 SSE 1033,0 6 18 0,0
22.03.2019 07:00:00 -2,0 -2,7 -5,2 7,2 7,8 5 3 8 5 SSE 1033,1 6 0 0,0
22.03.2019 06:00:00 -0,8 -1,6 -4,4 7,3 7,8 0 0 4 2 N 1032,3 2,9 0 0,0
22.03.2019 05:00:00 0,2 -0,7 -3,1 7,4 7,8 0 0 6 3 N 1032,0 6 0 0,0
22.03.2019 04:00:00 0,6 -0,4 -2,9 7,5 7,8 5 3 5 3 SSE 1032,1 8 0 0,0
22.03.2019 03:00:00 1,1 -0,2 -1,8 7,5 7,8 3 2 5 3 S 1032,1 8 0 0,0
22.03.2019 02:00:00 1,7 -0,4 -2,3 7,6 7,8 2 1 6 3 SSW 1032,1 10 0 0,0
22.03.2019 01:00:00 2,9 0,3 -0,2 7,7 7,8 5 3 9 5 SSE 1031,8 11 0 0,0
22.03.2019 00:00:00 1,9 -0,4 -0,5 7,7 7,8 6 3 9 5 S 1031,8 12 0 0,0
21.03.2019 23:00:00 3,5 0,7 -0,2 7,7 7,8 6 4 9 5 S 1031,3 13 0 0,0
21.03.2019 22:00:00 4,9 1,4 0,8 7,7 7,9 3 2 8 5 S 1030,9 13 0 0,0
21.03.2019 21:00:00 7,1 1,8 4,0 7,7 7,8 8 4 17 9 S 1030,1 15 0 0,0
21.03.2019 20:00:00 9,9 1,3 7,7 7,6 7,8 11 6 22 12 N 1029,4 15 0 0,0
21.03.2019 19:00:00 11,7 2,2 9,8 7,6 7,8 14 7 26 14 N 1028,8 17 3 0,0
21.03.2019 18:00:00 13,0 2,2 11,9 7,5 7,9 8 4 14 8 WNW 1028,1 16 22 0,0
21.03.2019 17:00:00 15,7 1,8 20,7 7,3 7,8 8 5 16 9 NNW 1027,6 16 60 0,0
21.03.2019 16:00:00 15,5 0,9 20,5 7,2 7,8 12 7 21 11 N 1027,7 15 60 0,0
21.03.2019 15:00:00 14,9 1,4 18,4 7,1 7,8 14 7 22 12 N 1028,1 13 60 0,0
21.03.2019 14:00:00 14,4 1,3 16,8 7,0 7,8 16 9 24 13 N 1028,7 12 60 0,0
21.03.2019 13:00:00 12,6 1,3 15,7 7,0 7,8 11 6 21 11 NNW 1029,6 16 60 0,0
21.03.2019 12:00:00 10,9 0,6 16,4 7,0 7,8 12 6 22 12 NNW 1030,2 16 60 0,0
21.03.2019 11:00:00 9,5 -0,4 15,4 7,0 7,8 11 6 23 12 NNW 1031,0 14 60 0,0
21.03.2019 10:00:00 7,9 -0,3 10,5 7,1 7,8 11 6 21 11 NNW 1031,6 15 60 0,0
21.03.2019 09:00:00 5,2 0,0 4,6 7,2 7,8 5 3 9 5 NNE 1032,3 13 60 0,0
21.03.2019 08:00:00 1,3 -0,3 -3,1 7,2 7,8 2 1 8 4 SE 1032,6 9 18 0,0
21.03.2019 07:00:00 -1,1 -2,4 -4,5 7,3 7,8 2 1 9 5 SSE 1032,5 11 0 0,0
21.03.2019 06:00:00 -1,2 -2,8 -4,4 7,4 7,8 3 2 8 4 E 1032,1 13 0 0,0
21.03.2019 05:00:00 -1,5 -3,7 -4,2 7,5 7,8 6 3 9 5 S 1032,0 11 0 0,0
21.03.2019 04:00:00 -0,2 -2,3 -3,2 7,5 7,8 6 3 8 4 SSE 1031,4 15 0 0,0
21.03.2019 03:00:00 1,3 -1,6 -1,9 7,6 7,8 3 2 8 5 S 1031,4 17 0 0,0
21.03.2019 02:00:00 3,1 -2,0 0,4 7,6 7,8 4 2 21 12 S 1031,7 16 0 0,0
21.03.2019 01:00:00 5,4 -1,3 3,0 7,6 7,8 9 5 18 10 WNW 1031,2 19 0 0,0
21.03.2019 00:00:00 6,2 -1,7 4,2 7,7 7,8 12 7 22 12 N 1030,6 19 0 0,0
20.03.2019 23:00:00 6,4 -1,0 4,3 7,7 7,8 14 8 19 10 N 1030,4 19 0 0,0
20.03.2019 22:00:00 7,3 -0,9 5,4 7,7 7,8 16 9 25 13 N 1030,4 19 0 0,0
20.03.2019 21:00:00 8,2 -1,1 6,1 7,7 7,8 16 9 25 14 N 1030,3 19 0 0,0
20.03.2019 20:00:00 8,9 -1,0 6,4 7,6 7,8 17 9 26 14 N 1029,7 20 0 0,0
20.03.2019 19:00:00 9,9 -0,3 7,1 7,6 7,8 14 8 21 12 NNW 1029,3 20 0 0,0
20.03.2019 18:00:00 9,3 0,5 7,7 7,5 7,8 10 5 24 13 N 1029,0 55 21 0,0
20.03.2019 17:00:00 13,1 -1,7 17,2 7,4 7,8 16 8 24 13 NNW 1028,3 17 60 0,0
20.03.2019 16:00:00 13,6 -0,8 18,3 7,3 7,8 16 8 26 14 NNW 1028,5 18 60 0,0
20.03.2019 15:00:00 13,1 -1,7 17,1 7,2 7,8 18 10 29 15 N 1029,0 18 60 0,0
20.03.2019 14:00:00 12,9 -1,1 15,1 7,1 7,8 19 11 30 16 N 1029,3 11 60 0,0
20.03.2019 13:00:00 12,0 -1,5 15,2 7,1 7,8 17 9 28 15 N 1029,9 16 60 0,0
20.03.2019 12:00:00 11,0 -1,8 16,1 7,1 7,8 15 8 28 15 NNW 1030,4 18 60 0,0
20.03.2019 11:00:00 9,2 -1,0 13,1 7,1 7,8 9 5 26 14 N 1030,7 15 60 0,0
20.03.2019 10:00:00 7,9 -1,1 10,8 7,1 7,8 18 10 28 15 N 1030,9 14 60 0,0
20.03.2019 09:00:00 6,5 -0,7 5,7 7,2 7,8 19 11 29 16 NNE 1031,0 17 60 0,0
20.03.2019 08:00:00 2,0 -0,8 -2,5 7,3 7,8 7 4 16 9 SSE 1031,4 13 16 0,0
20.03.2019 07:00:00 -0,2 -2,6 -3,1 7,4 7,8 5 3 11 6 SSE 1031,1 18 0 0,0
20.03.2019 06:00:00 0,6 -2,6 -2,1 7,4 7,8 6 3 13 7 S 1030,5 18 0 0,0
20.03.2019 05:00:00 2,3 -2,8 0,5 7,5 7,8 5 3 27 14 SE 1030,1 19 0 0,0
20.03.2019 04:00:00 3,7 -1,3 1,6 7,5 7,8 10 6 26 14 N 1029,9 45 0 0,0
20.03.2019 03:00:00 5,3 -1,4 4,1 7,5 7,8 21 11 33 18 NNE 1029,5 20 0 0,0
20.03.2019 02:00:00 5,8 -1,6 4,2 7,5 7,8 22 12 36 19 N 1029,2 20 0 0,0
20.03.2019 01:00:00 6,2 -1,7 4,9 7,6 7,8 24 13 35 19 N 1029,3 20 0 0,0
20.03.2019 00:00:00 6,4 -2,0 4,9 7,6 7,8 20 11 35 19 N 1028,8 53 0 0,0
19.03.2019 23:00:00 6,5 -1,7 5,4 7,6 7,8 20 11 35 19 N 1028,3 58 0 0,0
19.03.2019 22:00:00 6,6 -2,1 4,8 7,6 7,8 22 12 30 16 N 1027,8 58 0 0,0
19.03.2019 21:00:00 7,0 -1,7 5,4 7,6 7,8 16 9 27 15 N 1027,5 20 0 0,0
19.03.2019 20:00:00 8,2 -1,6 6,6 7,6 7,8 21 11 37 20 N 1027,0 60 0 0,0
19.03.2019 19:00:00 9,2 -1,8 8,1 7,5 7,8 26 14 44 24 N 1026,5 60 0 0,0
19.03.2019 18:00:00 10,3 -1,1 10,1 7,4 7,8 29 15 41 22 NNW 1025,7 58 15 0,0
19.03.2019 17:00:00 11,5 -2,3 12,2 7,3 7,8 26 14 43 23 NNW 1024,6 20 40 0,0
19.03.2019 16:00:00 12,3 -2,0 17,3 7,2 7,8 25 13 38 21 NNW 1024,6 17 60 0,0
19.03.2019 15:00:00 12,0 -2,3 16,6 7,2 7,8 23 12 35 19 N 1024,8 12 60 0,0
19.03.2019 14:00:00 12,0 -1,9 14,8 7,1 7,8 22 12 35 19 NNW 1024,9 15 60 0,0
19.03.2019 13:00:00 11,5 0,0 12,1 7,1 7,8 24 13 35 19 NNW 1025,2 12 47 0,0
19.03.2019 12:00:00 10,5 1,3 15,2 7,1 7,8 16 9 31 17 N 1025,6 14 60 0,0
19.03.2019 11:00:00 8,7 1,8 12,9 7,1 7,8 20 11 27 15 N 1025,8 13 60 0,0
19.03.2019 10:00:00 7,4 2,3 9,5 7,2 7,8 17 9 34 18 N 1026,1 16 60 0,0
19.03.2019 09:00:00 5,7 2,5 6,0 7,2 7,7 16 9 26 14 N 1025,9 17 60 0,0
19.03.2019 08:00:00 0,6 0,3 -3,2 7,4 7,8 3 2 8 4 S 1026,4 15 14 0,0
19.03.2019 07:00:00 -0,7 -1,3 -3,6 7,4 7,8 3 2 7 4 S 1025,7 14 0 0,0
19.03.2019 06:00:00 -0,5 -0,9 -3,8 7,5 7,8 5 3 11 6 S 1025,4 15 0 0,0
19.03.2019 05:00:00 -0,4 -1,1 -3,0 7,5 7,8 5 3 8 4 S 1025,0 11 0 0,0
19.03.2019 04:00:00 0,4 -0,3 -2,0 7,6 7,7 4 2 9 5 SSW 1024,6 10 0 0,0
19.03.2019 03:00:00 1,3 0,1 -0,7 7,7 7,7 4 2 6 3 S 1024,3 14 0 0,0
19.03.2019 02:00:00 2,7 0,8 1,1 7,7 7,7 5 3 12 7 ENE 1024,4 18 0 0,0
19.03.2019 01:00:00 2,6 1,0 0,1 7,8 7,7 5 3 10 5 N 1024,5 18 0 0,0
19.03.2019 00:00:00 1,7 0,4 -0,5 7,8 7,7 3 2 10 6 W 1024,7 18 0 0,0
18.03.2019 23:00:00 2,2 0,4 -0,1 7,9 7,7 2 1 10 6 NNE 1025,1 18 0 0,0
18.03.2019 22:00:00 2,6 0,3 0,5 7,9 7,7 6 3 10 5 S 1025,1 19 0 0,0
18.03.2019 21:00:00 4,0 0,1 1,5 7,9 7,7 6 4 21 11 WSW 1024,8 20 0 0,0
18.03.2019 20:00:00 5,6 1,3 3,3 7,9 7,7 10 6 20 11 N 1024,2 60 0 0,0
18.03.2019 19:00:00 6,9 -0,6 4,4 7,9 7,7 6 3 24 13 N 1023,7 60 0 0,0
18.03.2019 18:00:00 8,4 0,1 7,2 7,9 7,7 11 6 21 11 NNW 1023,0 60 0 0,0
18.03.2019 17:00:00 8,5 0,5 8,9 7,8 7,7 9 5 13 7 NNW 1022,6 20 5 0,0

tt = temperature
td = dewpoint
tt 5cm = temperature 5cm
tt -20cm = temperature -20cm
tt -100cm = temperature -100cm
ff = wind speed
fx = gusts
dd = wind direction
ppp = reduced air pressure
vv = visibility
sd = sunshine duration
rr = precipitation

Next stations